Time,TemperatureF,DewpointF,PressureIn,WindDirection,WindDirectionDegrees,WindSpeedMPH,WindSpeedGustMPH,Humidity,HourlyPrecipIn,Conditions,Clouds,dailyrainin,SolarRadiationWatts/m^2,SoftwareType,DateUTC
2013-02-16 01:00:00,28.0,18.0,-100.00,North,349,5.0,7.0,66,-99.99,,,-99.99,0.090000,,2013-02-16 08:00:00,
2013-02-16 01:52:00,28.0,18.0,-100.00,North,349,5.0,7.0,66,-99.99,,,-99.99,0.090000,,2013-02-16 08:52:00,
2013-02-16 02:00:00,28.0,19.0,-100.00,North,351,6.0,8.0,66,-99.99,,,-99.99,0.070000,,2013-02-16 09:00:00,
2013-02-16 02:52:00,28.0,19.0,-100.00,North,351,6.0,8.0,66,-99.99,,,-99.99,0.070000,,2013-02-16 09:52:00,
2013-02-16 03:00:00,26.0,18.0,-100.00,NNW,347,7.0,8.0,72,-99.99,,,-99.99,0.070000,,2013-02-16 10:00:00,
2013-02-16 03:52:00,26.0,18.0,-100.00,NNW,347,7.0,8.0,72,-99.99,,,-99.99,0.070000,,2013-02-16 10:52:00,
2013-02-16 04:00:00,26.0,16.0,-100.00,NNW,335,6.0,9.0,63,-99.99,,,-99.99,0.080000,,2013-02-16 11:00:00,
2013-02-16 04:52:00,26.0,16.0,-100.00,NNW,335,6.0,9.0,63,-99.99,,,-99.99,0.080000,,2013-02-16 11:52:00,
2013-02-16 05:00:00,25.0,16.0,-100.00,NNW,345,7.0,8.0,67,-99.99,,,-99.99,0.060000,,2013-02-16 12:00:00,
2013-02-16 05:52:00,25.0,16.0,-100.00,NNW,345,7.0,8.0,67,-99.99,,,-99.99,0.060000,,2013-02-16 12:52:00,
2013-02-16 07:00:00,23.0,15.0,-100.00,North,350,6.0,9.0,71,-99.99,,,-99.99,0.150000,,2013-02-16 14:00:00,
2013-02-16 07:52:00,23.0,15.0,-100.00,North,350,6.0,9.0,71,-99.99,,,-99.99,0.150000,,2013-02-16 14:52:00,
2013-02-16 08:00:00,26.0,14.0,-100.00,NNW,344,6.0,9.0,59,-99.99,,,-99.99,41.560001,,2013-02-16 15:00:00,
2013-02-16 08:52:00,26.0,14.0,-100.00,NNW,344,6.0,9.0,59,-99.99,,,-99.99,41.560001,,2013-02-16 15:52:00,
2013-02-16 09:00:00,32.0,15.0,-100.00,NNW,346,6.0,8.0,48,-99.99,,,-99.99,229.000000,,2013-02-16 16:00:00,
2013-02-16 09:52:00,32.0,15.0,-100.00,NNW,346,6.0,8.0,48,-99.99,,,-99.99,229.000000,,2013-02-16 16:52:00,
2013-02-16 10:00:00,39.0,14.0,-100.00,NNW,340,5.0,9.0,36,-99.99,,,-99.99,427.899994,,2013-02-16 17:00:00,
2013-02-16 10:52:00,39.0,14.0,-100.00,NNW,340,5.0,9.0,36,-99.99,,,-99.99,427.899994,,2013-02-16 17:52:00,
2013-02-16 11:00:00,44.0,14.0,-100.00,North,351,3.0,9.0,30,-99.99,,,-99.99,590.299988,,2013-02-16 18:00:00,
2013-02-16 11:52:00,44.0,14.0,-100.00,North,351,3.0,9.0,30,-99.99,,,-99.99,590.299988,,2013-02-16 18:52:00,
2013-02-16 12:00:00,45.0,14.0,-100.00,SE,142,4.0,6.0,28,-99.99,,,-99.99,697.099976,,2013-02-16 19:00:00,
2013-02-16 12:52:00,45.0,14.0,-100.00,SE,142,4.0,6.0,28,-99.99,,,-99.99,697.099976,,2013-02-16 19:52:00,
2013-02-16 13:00:00,46.0,13.0,-100.00,SE,125,6.0,9.0,26,-99.99,,,-99.99,740.099976,,2013-02-16 20:00:00,
2013-02-16 13:52:00,46.0,13.0,-100.00,SE,125,6.0,9.0,26,-99.99,,,-99.99,740.099976,,2013-02-16 20:52:00,
2013-02-16 14:00:00,48.0,14.0,-100.00,SE,128,8.0,10.0,25,-99.99,,,-99.99,718.000000,,2013-02-16 21:00:00,
2013-02-16 14:52:00,48.0,14.0,-100.00,SE,128,8.0,10.0,25,-99.99,,,-99.99,718.000000,,2013-02-16 21:52:00,
2013-02-16 15:00:00,49.0,14.0,-100.00,SE,126,7.0,13.0,24,-99.99,,,-99.99,630.799988,,2013-02-16 22:00:00,
2013-02-16 15:52:00,49.0,14.0,-100.00,SE,126,7.0,13.0,24,-99.99,,,-99.99,630.799988,,2013-02-16 22:52:00,
2013-02-16 16:00:00,49.0,15.0,-100.00,SE,127,7.0,-999.0,25,-99.99,,,-99.99,487.100006,,2013-02-16 23:00:00,
2013-02-16 16:52:00,49.0,15.0,-100.00,SE,127,7.0,-999.0,25,-99.99,,,-99.99,487.100006,,2013-02-16 23:52:00,
2013-02-16 17:00:00,48.0,16.0,-100.00,SE,130,6.0,11.0,28,-99.99,,,-99.99,285.600006,,2013-02-17 00:00:00,
2013-02-16 17:52:00,48.0,16.0,-100.00,SE,130,6.0,11.0,28,-99.99,,,-99.99,285.600006,,2013-02-17 00:52:00,
2013-02-16 18:00:00,42.0,16.0,-100.00,SE,126,5.0,9.0,34,-99.99,,,-99.99,70.500000,,2013-02-17 01:00:00,
2013-02-16 18:52:00,42.0,16.0,-100.00,SE,126,5.0,9.0,34,-99.99,,,-99.99,70.500000,,2013-02-17 01:52:00,
2013-02-16 19:00:00,40.0,17.0,-100.00,East,92,4.0,9.0,39,-99.99,,,-99.99,1.200000,,2013-02-17 02:00:00,
2013-02-16 19:52:00,40.0,17.0,-100.00,East,92,4.0,9.0,39,-99.99,,,-99.99,1.200000,,2013-02-17 02:52:00,
2013-02-16 20:00:00,37.0,16.0,-100.00,ENE,59,2.0,5.0,42,-99.99,,,-99.99,0.060000,,2013-02-17 03:00:00,
2013-02-16 20:52:00,37.0,16.0,-100.00,ENE,59,2.0,5.0,42,-99.99,,,-99.99,0.060000,,2013-02-17 03:52:00,
2013-02-16 21:00:00,36.0,18.0,-100.00,NNW,346,3.0,5.0,47,-99.99,,,-99.99,0.050000,,2013-02-17 04:00:00,
2013-02-16 21:52:00,36.0,18.0,-100.00,NNW,346,3.0,5.0,47,-99.99,,,-99.99,0.050000,,2013-02-17 04:52:00,
2013-02-16 23:00:00,34.0,20.0,-100.00,North,2,5.0,6.0,55,-99.99,,,-99.99,0.050000,,2013-02-17 06:00:00,
2013-02-16 23:11:00,34.0,20.0,-100.00,North,5,4.0,6.0,55,-99.99,,,-99.99,0.100000,,2013-02-17 06:11:00,
2013-02-16 23:21:00,34.0,20.0,-100.00,North,5,4.0,6.0,55,-99.99,,,-99.99,0.100000,,2013-02-17 06:21:00,
2013-02-16 23:32:00,34.0,20.0,-100.00,North,5,4.0,6.0,55,-99.99,,,-99.99,0.100000,,2013-02-17 06:32:00,
2013-02-16 23:42:00,34.0,20.0,-100.00,North,5,4.0,6.0,55,-99.99,,,-99.99,0.100000,,2013-02-17 06:42:00,
2013-02-16 23:51:00,34.0,20.0,-100.00,North,2,5.0,6.0,55,-99.99,,,-99.99,0.050000,,2013-02-17 06:51:00,